Location: Newark
(46.7000°N, 60.6000°W)
Time: 21:53:46
(UTC+00:00)

Vanguard 1 Rocket - Pass Details

Date: 08 November 2020
Orbit: 656 x 4221 km, 34.3° (Epoch: 30 November)

Event Time Altitude Azimuth Distance (km) Brightness Sun altitude
Rises 13:21:55 0° 253° (WSW) 4,682 10.9 18.7°
Reaches altitude 10° 13:26:10 10° 241° (WSW) 3,160 10.2 19.1°
Maximum altitude 13:31:44 25° 189° (S) 1,717 9.7 19.7°
Drops below altitude 10° 13:35:45 10° 134° (SE) 2,215 11.3 20.0°
Sets 13:38:10 0° 120° (ESE) 3,013 11.2 20.3°
